Previsão horária em Almogia

Hoje, 16 Janeiro, Sábado

Tempo Temperatura Precipitação Vento Pressão Humidade
00:00 +7°C° 0 mm 2 m/s 736 mmHg 61%
01:00 +5°C° 0 mm 3 m/s 736 mmHg 63%
02:00 +5°C° 0 mm 3 m/s 736 mmHg 64%
03:00 +5°C° 0 mm 3 m/s 736 mmHg 65%
04:00 +5°C° 0 mm 3 m/s 736 mmHg 61%
05:00 +5°C° 0 mm 3 m/s 736 mmHg 58%
06:00 +4°C° 0 mm 3 m/s 736 mmHg 55%
07:00 +6°C° 0 mm 2 m/s 736 mmHg 54%
08:00 +7°C° 0 mm 2 m/s 737 mmHg 53%
09:00 +8°C° 0 mm 2 m/s 737 mmHg 52%
10:00 +10°C° 0 mm 2 m/s 737 mmHg 48%
11:00 +13°C° 0 mm 2 m/s 737 mmHg 43%
12:00 +15°C° 0 mm 2 m/s 737 mmHg 39%
13:00 +15°C° 0 mm 2 m/s 737 mmHg 40%
14:00 +15°C° 0 mm 2 m/s 737 mmHg 41%
15:00 +15°C° 0 mm 1 m/s 737 mmHg 42%
16:00 +13°C° 0 mm 1 m/s 737 mmHg 50%
17:00 +11°C° 0 mm 1 m/s 737 mmHg 58%
18:00 +9°C° 0 mm 1 m/s 737 mmHg 67%
19:00 +9°C° 0 mm 1 m/s 737 mmHg 70%
20:00 +9°C° 0 mm 1 m/s 738 mmHg 73%
21:00 +8°C° 0 mm 1 m/s 738 mmHg 76%
22:00 +8°C° 0 mm 1 m/s 738 mmHg 76%
23:00 +8°C° 0 mm 1 m/s 739 mmHg 77%

Amanhã, 17 Janeiro, Domingo

Tempo Temperatura Precipitação Vento Pressão Humidade
00:00 +8°C° 0 mm 1 m/s 739 mmHg 77%
01:00 +8°C° 0 mm 1 m/s 739 mmHg 75%
02:00 +8°C° 0 mm 1 m/s 738 mmHg 72%
03:00 +8°C° 0 mm 1 m/s 738 mmHg 69%
04:00 +8°C° 0 mm 1 m/s 738 mmHg 67%
05:00 +8°C° 0 mm 1 m/s 738 mmHg 65%
06:00 +7°C° 0 mm 1 m/s 738 mmHg 63%
07:00 +8°C° 0 mm 1 m/s 738 mmHg 62%
08:00 +9°C° 0 mm 1 m/s 738 mmHg 62%
09:00 +10°C° 0 mm 1 m/s 738 mmHg 61%
10:00 +12°C° 0 mm 1 m/s 738 mmHg 56%
11:00 +14°C° 0 mm 1 m/s 739 mmHg 50%
12:00 +15°C° 0 mm 0 m/s 739 mmHg 45%
13:00 +16°C° 0 mm 1 m/s 738 mmHg 45%
14:00 +18°C° 0 mm 1 m/s 738 mmHg 45%
15:00 +18°C° 0 mm 1 m/s 737 mmHg 45%
16:00 +15°C° 0 mm 1 m/s 737 mmHg 50%
17:00 +13°C° 0 mm 1 m/s 737 mmHg 56%
18:00 +11°C° 0 mm 1 m/s 737 mmHg 62%
19:00 +11°C° 0 mm 1 m/s 737 mmHg 59%
20:00 +11°C° 0 mm 1 m/s 737 mmHg 56%
21:00 +10°C° 0 mm 1 m/s 737 mmHg 53%
22:00 +10°C° 0 mm 1 m/s 737 mmHg 51%
23:00 +10°C° 0 mm 1 m/s 737 mmHg 49%

Depois de amanhã, 18 Janeiro, Segunda-feira

Tempo Temperatura Precipitação Vento Pressão Humidade
00:00 +10°C° 0 mm 1 m/s 737 mmHg 47%
01:00 +10°C° 0 mm 1 m/s 737 mmHg 46%
02:00 +10°C° 0 mm 1 m/s 737 mmHg 44%
03:00 +10°C° 0 mm 1 m/s 737 mmHg 42%
04:00 +10°C° 0 mm 1 m/s 737 mmHg 42%
05:00 +9°C° 0 mm 1 m/s 736 mmHg 41%
06:00 +9°C° 0 mm 1 m/s 736 mmHg 40%
07:00 +10°C° 0 mm 1 m/s 737 mmHg 42%
08:00 +10°C° 0 mm 0 m/s 737 mmHg 44%
09:00 +11°C° 0 mm 0 m/s 737 mmHg 46%
10:00 +13°C° 0 mm 1 m/s 737 mmHg 43%
11:00 +15°C° 0 mm 1 m/s 737 mmHg 41%
12:00 +16°C° 0 mm 1 m/s 737 mmHg 38%
13:00 +16°C° 0 mm 1 m/s 737 mmHg 40%
14:00 +16°C° 0 mm 1 m/s 737 mmHg 42%
15:00 +16°C° 0 mm 1 m/s 736 mmHg 43%
16:00 +14°C° 0 mm 1 m/s 736 mmHg 50%
17:00 +13°C° 0 mm 1 m/s 736 mmHg 57%
18:00 +11°C° 0 mm 1 m/s 737 mmHg 63%
19:00 +10°C° 0 mm 1 m/s 737 mmHg 63%
20:00 +10°C° 0 mm 1 m/s 737 mmHg 63%
21:00 +9°C° 0 mm 1 m/s 737 mmHg 63%
22:00 +9°C° 0 mm 1 m/s 737 mmHg 63%
23:00 +9°C° 0 mm 1 m/s 737 mmHg 63%

19 Janeiro, Terça-feira

Tempo Temperatura Precipitação Vento Pressão Humidade
00:00 +9°C° 0 mm 1 m/s 737 mmHg 63%
01:00 +8°C° 0 mm 1 m/s 737 mmHg 65%
02:00 +8°C° 0 mm 1 m/s 737 mmHg 66%
03:00 +8°C° 0 mm 1 m/s 736 mmHg 67%
04:00 +8°C° 0 mm 1 m/s 736 mmHg 68%
05:00 +8°C° 0 mm 1 m/s 736 mmHg 68%
06:00 +8°C° 0 mm 1 m/s 736 mmHg 69%
07:00 +8°C° 0 mm 1 m/s 736 mmHg 68%
08:00 +9°C° 0 mm 1 m/s 736 mmHg 67%
09:00 +10°C° 0 mm 1 m/s 737 mmHg 67%
10:00 +11°C° 0 mm 1 m/s 736 mmHg 64%
11:00 +13°C° 0 mm 1 m/s 736 mmHg 62%
12:00 +14°C° 0 mm 1 m/s 736 mmHg 59%
13:00 +14°C° 0 mm 1 m/s 735 mmHg 58%
14:00 +14°C° 0 mm 1 m/s 735 mmHg 57%
15:00 +14°C° 0 mm 1 m/s 735 mmHg 57%
16:00 +13°C° 0 mm 1 m/s 734 mmHg 64%
17:00 +12°C° 0 mm 1 m/s 734 mmHg 72%
18:00 +9°C° 0 mm 0 m/s 734 mmHg 79%
19:00 +10°C° 0 mm 1 m/s 734 mmHg 79%
20:00 +9°C° 0 mm 1 m/s 734 mmHg 78%
21:00 +9°C° 0 mm 1 m/s 734 mmHg 78%
22:00 +9°C° 0 mm 1 m/s 733 mmHg 78%
23:00 +9°C° 0 mm 1 m/s 733 mmHg 79%

20 Janeiro, Quarta-feira

Tempo Temperatura Precipitação Vento Pressão Humidade
00:00 +9°C° 0 mm 1 m/s 733 mmHg 79%
01:00 +9°C° 0 mm 1 m/s 732 mmHg 79%
02:00 +9°C° 0 mm 1 m/s 732 mmHg 80%
03:00 +9°C° 0 mm 1 m/s 731 mmHg 80%
04:00 +8°C° 0 mm 2 m/s 731 mmHg 80%
05:00 +8°C° 0 mm 2 m/s 730 mmHg 80%
06:00 +8°C° 0 mm 2 m/s 730 mmHg 80%
07:00 +8°C° 0 mm 2 m/s 730 mmHg 80%
08:00 +9°C° 0 mm 3 m/s 730 mmHg 79%
09:00 +9°C° 0 mm 3 m/s 729 mmHg 79%
10:00 +10°C° 1.2 mm 4 m/s 729 mmHg 84%
11:00 +9°C° 1.2 mm 5 m/s 729 mmHg 88%
12:00 +9°C° 1.2 mm 5 m/s 729 mmHg 93%
13:00 +9°C° 1 mm 5 m/s 728 mmHg 93%
14:00 +10°C° 1 mm 4 m/s 728 mmHg 94%
15:00 +11°C° 1 mm 4 m/s 727 mmHg 94%
16:00 +10°C° 0.4 mm 3 m/s 728 mmHg 94%
17:00 +10°C° 0.4 mm 3 m/s 728 mmHg 94%
18:00 +10°C° 0.4 mm 2 m/s 728 mmHg 95%
19:00 +10°C° 0.1 mm 2 m/s 729 mmHg 93%
20:00 +10°C° 0.1 mm 2 m/s 729 mmHg 92%
21:00 +10°C° 0.1 mm 2 m/s 730 mmHg 90%
22:00 +10°C° 0 mm 2 m/s 730 mmHg 91%
23:00 +10°C° 0 mm 2 m/s 730 mmHg 91%

21 Janeiro, Quinta-feira

Tempo Temperatura Precipitação Vento Pressão Humidade
00:00 +9°C° 0 mm 2 m/s 730 mmHg 92%
01:00 +9°C° 0 mm 2 m/s 730 mmHg 92%
02:00 +9°C° 0 mm 2 m/s 731 mmHg 92%
03:00 +9°C° 0 mm 2 m/s 731 mmHg 92%
04:00 +9°C° 0 mm 2 m/s 731 mmHg 92%
05:00 +10°C° 0 mm 1 m/s 731 mmHg 92%
06:00 +10°C° 0 mm 1 m/s 731 mmHg 91%
07:00 +10°C° 0 mm 1 m/s 731 mmHg 89%
08:00 +11°C° 0 mm 1 m/s 732 mmHg 87%
09:00 +11°C° 0 mm 1 m/s 732 mmHg 85%
10:00 +12°C° 0.1 mm 2 m/s 732 mmHg 82%
11:00 +13°C° 0.1 mm 2 m/s 732 mmHg 79%
12:00 +13°C° 0.1 mm 3 m/s 732 mmHg 76%
13:00 +13°C° 0.1 mm 3 m/s 732 mmHg 78%
14:00 +13°C° 0.1 mm 3 m/s 731 mmHg 80%
15:00 +13°C° 0.1 mm 3 m/s 731 mmHg 82%
16:00 +12°C° 0.1 mm 3 m/s 731 mmHg 85%
17:00 +11°C° 0.1 mm 3 m/s 731 mmHg 87%
18:00 +10°C° 0.1 mm 3 m/s 730 mmHg 89%
19:00 +11°C° 0.1 mm 3 m/s 730 mmHg 90%
20:00 +11°C° 0.1 mm 3 m/s 730 mmHg 91%
21:00 +11°C° 0.1 mm 3 m/s 731 mmHg 92%
22:00 +11°C° 0.5 mm 3 m/s 730 mmHg 93%
23:00 +11°C° 0.5 mm 3 m/s 730 mmHg 93%
Mostrar mais

Necessitamos do seu Consentimento

A Meteoprog e os seus Fornecedores de Serviços podem armazenar e aceder a dados pessoais como cookies, identificadores do dispositivo ou outras tecnologias semelhantes existentes no seu dispositivo e processar estes dados para personalizar conteúdos e anúncios, assim como funcionalidades nas redes sociais e análise de tráfego.

  • Armazenar e/ou aceder a informações no seu dispositivo

    Os cookies, identificadores do dispositivo ou outras informações podem ser armazenados ou acedidos no seu dispositivo, para os fins acima indicados.

  • Anúncios e conteúdos personalizados, medição de anúncios e conteúdos, dados sobre o público-alvo e desenvolvimento de produtos

    Os anúncios e os conteúdos podem ser personalizados com base num perfil. Podem ser adicionados dados adicionais para uma maior personalização dos anúncios e dos conteúdos. A eficácia dos anúncios e dos conteúdos pode ser medida. Podem ser obtidas informações sobre o público que visualizou os anúncios e os conteúdos. Estes dados podem ser usados para desenvolver ou melhorar sistemas, softwares ou a experiência do utilizador.

Ao clicar em "Eu concordo”, permitirá o uso de cookies, identificadores do dispositivo e web beacons mencionados ou outras tecnologias semelhantes. As configurações do navegador do seu dispositivo podem ser alteradas.

Para certos fins, podem ser invocados interesses legítimos ao invés de consentimento. Pode ler mais informação sobre este assunto na nossa Política de Privacidade e Cookies.